CW9206 Weather Reports


time (UTC)temp
F
wind
direction
speed
knots
gust
knots
rain 1hr
in
rain 24hr
in
rain mn
in
humidity
%
barometer
mb
20260510002243 73 284 2.6 8.7 0.00 0.00 0.00 46 1011.0
20260510001244 73 304 0.0 8.7 0.00 0.00 0.00 46 1010.9
20260510000243 73 314 1.7 9.6 0.00 0.00 0.00 45 1010.9
20260509235743 74 286 3.5 7.8 0.00 0.00 0.00 45 1011.0
20260509235243 74 312 2.6 7.8 0.00 0.00 0.00 45 1011.0
20260509234743 74 268 0.9 8.7 0.00 0.00 0.00 45 1011.1
20260509233744 74 309 0.9 9.6 0.00 0.00 0.00 45 1011.1
20260509233243 74 333 3.5 8.7 0.00 0.00 0.00 45 1011.2
20260509232743 75 260 0.0 11.3 0.00 0.00 0.00 45 1011.2
20260509232242 75 267 4.3 11.3 0.00 0.00 0.00 44 1011.2
20260509231743 75 327 9.6 9.6 0.00 0.00 0.00 44 1011.2
20260509231242 75 286 1.7 9.6 0.00 0.00 0.00 44 1011.1
20260509230742 75 267 0.0 8.7 0.00 0.00 0.00 44 1011.2
20260509230242 76 235 0.0 9.6 0.00 0.00 0.00 44 1011.2
20260509225742 76 277 0.9 11.3 0.00 0.00 0.00 44 1011.2
20260509225243 76 279 1.7 11.3 0.00 0.00 0.00 44 1011.2
20260509224743 77 346 1.7 9.6 0.00 0.00 0.00 43 1011.2
20260509224243 77 320 0.0 9.6 0.00 0.00 0.00 43 1011.2
20260509223743 77 269 3.5 12.2 0.00 0.00 0.00 43 1011.2
20260509223243 77 137 2.6 12.2 0.00 0.00 0.00 43 1011.3
20260509222742 77 269 6.1 8.7 0.00 0.00 0.00 43 1011.2
20260509222242 77 229 0.9 8.7 0.00 0.00 0.00 43 1011.2
20260509221743 77 293 4.3 12.2 0.00 0.00 0.00 43 1011.3
20260509221243 77 271 2.6 12.2 0.00 0.00 0.00 43 1011.4
20260509220742 77 288 4.3 12.2 0.00 0.00 0.00 42 1011.4
20260509220242 78 319 2.6 10.4 0.00 0.00 0.00 42 1011.4
20260509215743 79 313 2.6 13.0 0.00 0.00 0.00 42 1011.5
20260509215243 79 304 3.5 13.0 0.00 0.00 0.00 41 1011.4
20260509214743 79 251 1.7 9.6 0.00 0.00 0.00 41 1011.5
20260509214242 80 298 7.0 11.3 0.00 0.00 0.00 40 1011.5
20260509213743 80 343 5.2 13.0 0.00 0.00 0.00 40 1011.5
20260509213242 80 306 4.3 13.0 0.00 0.00 0.00 40 1011.6
20260509212743 80 321 2.6 9.6 0.00 0.00 0.00 40 1011.6
20260509211742 80 303 4.3 10.4 0.00 0.00 0.00 40 1011.7
20260509211242 80 272 0.0 10.4 0.00 0.00 0.00 40 1011.7
20260509210742 80 298 2.6 7.8 0.00 0.00 0.00 40 1011.7
20260509205743 80 281 1.7 10.4 0.00 0.00 0.00 39 1011.9
20260509205242 79 265 1.7 10.4 0.00 0.00 0.00 39 1012.0
20260509204743 79 275 2.6 6.1 0.00 0.00 0.00 39 1012.0
20260509204243 80 254 0.9 6.1 0.00 0.00 0.00 39 1012.0
20260509203743 79 311 0.9 6.1 0.00 0.00 0.00 39 1012.0
20260509202742 79 312 2.6 5.2 0.00 0.00 0.00 38 1012.1
20260509202243 79 287 1.7 5.2 0.00 0.00 0.00 38 1012.2
20260509201743 78 286 1.7 6.1 0.00 0.00 0.00 38 1012.3
20260509201243 78 249 0.0 6.1 0.00 0.00 0.00 38 1012.3
20260509200742 78 290 0.0 6.1 0.00 0.00 0.00 37 1012.3
20260509200243 78 291 3.5 7.0 0.00 0.00 0.00 37 1012.3
20260509195742 78 323 0.0 7.0 0.00 0.00 0.00 37 1012.4
20260509195242 77 313 0.0 8.7 0.00 0.00 0.00 36 1012.4
20260509194743 77 291 0.0 8.7 0.00 0.00 0.00 36 1012.5
20260509194243 77 296 1.7 5.2 0.00 0.00 0.00 36 1012.6
20260509193742 77 303 0.9 5.2 0.00 0.00 0.00 35 1012.5
20260509193242 76 305 0.0 5.2 0.00 0.00 0.00 34 1012.6
20260509192742 76 305 5.2 6.1 0.00 0.00 0.00 34 1012.6
20260509192242 75 306 0.0 6.1 0.00 0.00 0.00 34 1012.6
20260509191742 74 306 0.0 4.3 0.00 0.00 0.00 34 1012.8
20260509191242 74 306 2.6 4.3 0.00 0.00 0.00 33 1012.8
20260509190743 74 306 0.0 5.2 0.00 0.00 0.00 32 1013.0
20260509190242 73 306 1.7 5.2 0.00 0.00 0.00 32 1013.1
20260509185243 71 308 4.3 5.2 0.00 0.00 0.00 32 1013.0
20260509184742 70 301 2.6 5.2 0.00 0.00 0.00 31 1013.0
20260509184243 70 301 2.6 4.3 0.00 0.00 0.00 32 1013.1
20260509183742 69 130 0.0 5.2 0.00 0.00 0.00 32 1013.2
20260509182742 69 310 0.0 4.3 0.00 0.00 0.00 31 1013.3
20260509182242 68 313 0.0 4.3 0.00 0.00 0.00 31 1013.3
20260509181743 68 207 0.9 3.5 0.00 0.00 0.00 31 1013.3
20260509181242 68 207 0.0 5.2 0.00 0.00 0.00 31 1013.3
20260509180742 68 311 2.6 5.2 0.00 0.00 0.00 30 1013.5
20260509180242 67 271 4.3 5.2 0.00 0.00 0.00 30 1013.3
20260509175742 67 253 0.9 7.8 0.00 0.00 0.00 30 1013.3
20260509175242 67 306 0.0 7.8 0.00 0.00 0.00 29 1013.3
20260509174742 66 280 3.5 3.5 0.00 0.00 0.00 29 1013.3
20260509174242 66 280 0.9 6.1 0.00 0.00 0.00 28 1013.3
20260509173242 64 280 2.6 4.3 0.00 0.00 0.00 25 1013.3
20260509172242 62 280 0.9 2.6 0.00 0.00 0.00 24 1013.3
20260509171742 62 280 0.9 2.6 0.00 0.00 0.00 23 1013.3
20260509171242 61 280 0.0 0.9 0.00 0.00 0.00 21 1013.3
20260509170742 61 280 0.0 2.6 0.00 0.00 0.00 20 1013.4
20260509170242 60 280 0.0 2.6 0.00 0.00 0.00 19 1013.3
20260509165742 60 280 0.0 1.7 0.00 0.00 0.00 15 1013.3
20260509165242 59 280 0.0 1.7 0.00 0.00 0.00 14 1013.3
20260509164742 59 280 0.0 2.6 0.00 0.00 0.00 13 1013.3
20260509164242 58 280 0.0 2.6 0.00 0.00 0.00 13 1013.3
20260509163744 57 280 0.0 0.0 0.00 0.00 0.00 13 1013.4
20260509163242 57 280 0.0 0.0 0.00 0.00 0.00 12 1013.4
20260509162742 57 280 0.0 0.0 0.00 0.00 0.00 12 1013.4
20260509162242 56 280 0.0 0.0 0.00 0.00 0.00 12 1013.3
20260509161742 56 280 0.0 0.0 0.00 0.00 0.00 13 1013.3
20260509161242 56 280 0.0 0.0 0.00 0.00 0.00 13 1013.3
20260509160242 56 280 0.0 0.0 0.00 0.00 0.00 13 1013.3
20260509155742 56 280 0.0 0.0 0.00 0.00 0.00 13 1013.3
20260509155242 55 280 0.0 0.0 0.00 0.00 0.00 13 1013.3
20260509154742 55 280 0.0 0.0 0.00 0.00 0.00 13 1013.3
20260509154242 55 280 0.0 0.0 0.00 0.00 0.00 13 1013.4
20260509153742 55 280 0.0 0.0 0.00 0.00 0.00 13 1013.5
20260509153242 55 280 0.0 0.0 0.00 0.00 0.00 13 1013.5
20260509152742 55 280 0.0 0.0 0.00 0.00 0.00 13 1013.5
20260509152242 55 280 0.0 0.0 0.00 0.00 0.00 13 1013.5
20260509151742 55 280 0.0 0.0 0.00 0.00 0.00 13 1013.5
20260509150242 55 280 0.0 0.0 0.00 0.00 0.00 13 1013.3
20260509145742 55 280 0.0 0.0 0.00 0.00 0.00 13 1013.4
20260509145242 55 280 0.0 0.0 0.00 0.00 0.00 14 1013.4
20260509144742 55 280 0.0 0.0 0.00 0.00 0.00 14 1013.6
20260509143742 55 280 0.0 1.7 0.00 0.00 0.00 13 1013.4
20260509143241 55 280 0.0 2.6 0.00 0.00 0.00 13 1013.4
20260509142743 55 280 0.0 2.6 0.00 0.00 0.00 14 1013.4
20260509142241 55 280 0.0 0.0 0.00 0.00 0.00 14 1013.3
20260509141742 55 280 0.0 0.0 0.00 0.00 0.00 14 1013.2
20260509141242 54 280 0.0 0.0 0.00 0.00 0.00 14 1013.0
20260509140741 54 280 0.0 0.0 0.00 0.00 0.00 14 1013.0
20260509140242 54 280 0.0 0.0 0.00 0.00 0.00 14 1012.9
20260509135741 54 280 0.0 0.0 0.00 0.00 0.00 13 1013.0
20260509135241 54 280 0.0 0.0 0.00 0.00 0.00 13 1013.0
20260509134742 54 280 0.0 0.0 0.00 0.00 0.00 13 1013.1
20260509133741 54 280 0.0 0.0 0.00 0.00 0.00 13 1013.0
20260509133241 54 280 0.0 0.0 0.00 0.00 0.00 13 1013.0
20260509132742 55 280 0.0 0.0 0.00 0.00 0.00 13 1013.0
20260509132241 55 280 0.0 0.0 0.00 0.00 0.00 13 1013.1
20260509131742 55 280 0.0 0.0 0.00 0.00 0.00 13 1013.1
20260509131242 55 280 0.0 0.0 0.00 0.00 0.00 13 1013.1
20260509130742 55 280 0.0 0.0 0.00 0.00 0.00 13 1013.1
20260509130242 55 280 0.0 0.0 0.00 0.00 0.00 13 1013.2
20260509125742 55 280 0.0 0.0 0.00 0.00 0.00 13 1013.2
20260509125242 54 280 0.0 0.0 0.00 0.00 0.00 13 1013.1
20260509124242 54 280 0.0 0.0 0.00 0.00 0.00 13 1013.1
20260509123241 54 280 0.0 0.0 0.00 0.00 0.00 13 1013.0
20260509122741 54 280 0.0 0.0 0.00 0.00 0.00 13 1013.1
20260509122241 54 280 0.0 0.0 0.00 0.00 0.00 13 1013.1
20260509121241 54 280 0.0 0.0 0.00 0.00 0.00 13 1013.1
20260509120742 54 280 0.0 0.0 0.00 0.00 0.00 13 1013.1
20260509120242 54 280 0.0 0.0 0.00 0.00 0.00 13 1013.1
20260509114743 54 280 0.0 0.0 0.00 0.00 0.00 13 1013.2
20260509114242 54 280 0.0 0.0 0.00 0.00 0.00 13 1013.2
20260509113742 54 280 0.0 0.0 0.00 0.00 0.00 13 1013.3
20260509113242 54 280 0.0 0.0 0.00 0.00 0.00 13 1013.4
20260509112242 54 280 0.0 0.0 0.00 0.00 0.00 13 1013.3
20260509111743 54 280 0.0 0.0 0.00 0.00 0.00 13 1013.4
20260509110742 54 280 0.0 0.0 0.00 0.00 0.00 13 1013.5
20260509110241 54 280 0.0 0.0 0.00 0.00 0.00 13 1013.4
20260509105742 54 280 0.0 0.0 0.00 0.00 0.00 13 1013.6
20260509105242 54 280 0.0 0.0 0.00 0.00 0.00 13 1013.8
20260509104741 54 280 0.0 0.0 0.00 0.00 0.00 13 1013.7
20260509104241 54 280 0.0 0.0 0.00 0.00 0.00 13 1013.7
20260509103241 54 280 0.0 0.0 0.00 0.00 0.00 13 1013.8
20260509102741 55 280 0.0 0.0 0.00 0.00 0.00 13 1013.7
20260509101741 55 280 0.0 0.0 0.00 0.00 0.00 13 1013.7
20260509101241 55 280 0.0 0.0 0.00 0.00 0.00 13 1013.6
20260509100742 55 280 0.0 0.0 0.00 0.00 0.00 13 1013.6
20260509100242 55 280 0.0 0.0 0.00 0.00 0.00 13 1013.6
20260509095242 55 280 0.0 0.0 0.00 0.00 0.00 13 1013.7
20260509094741 55 280 0.0 0.0 0.00 0.00 0.00 13 1013.7
20260509094241 55 280 0.0 0.0 0.00 0.00 0.00 13 1013.7
20260509093742 55 280 0.0 0.0 0.00 0.00 0.00 13 1013.8
20260509093241 55 280 0.0 0.0 0.00 0.00 0.00 13 1013.8
20260509092741 55 280 0.0 0.0 0.00 0.00 0.00 13 1013.8
20260509092241 55 280 0.0 0.0 0.00 0.00 0.00 13 1013.9
20260509091742 55 280 0.0 0.0 0.00 0.00 0.00 13 1013.9
20260509091241 55 280 0.0 0.0 0.00 0.00 0.00 13 1013.9
20260509090741 55 280 0.0 0.0 0.00 0.00 0.00 13 1013.9
20260509090242 55 280 0.0 0.0 0.00 0.00 0.00 13 1014.1
20260509085242 55 280 0.0 0.0 0.00 0.00 0.00 13 1014.1
20260509084741 55 280 0.0 0.0 0.00 0.00 0.00 13 1014.1
20260509084241 55 280 0.0 0.0 0.00 0.00 0.00 13 1014.1
20260509083742 55 280 0.0 0.0 0.00 0.00 0.00 13 1014.1
20260509083241 55 280 0.0 0.0 0.00 0.00 0.00 13 1014.1
20260509082742 55 280 0.0 0.0 0.00 0.00 0.00 13 1014.3
20260509082241 55 280 0.0 0.0 0.00 0.00 0.00 13 1014.4
20260509081741 55 280 0.0 0.0 0.00 0.00 0.00 13 1014.3
20260509081241 55 280 0.0 0.0 0.00 0.00 0.00 13 1014.4
20260509080741 55 280 0.0 0.9 0.00 0.00 0.00 13 1014.5
20260509080241 55 280 0.0 3.5 0.00 0.00 0.00 13 1014.5
20260509075741 55 280 0.0 3.5 0.00 0.00 0.00 13 1014.5
20260509075241 56 280 0.0 2.6 0.00 0.00 0.00 13 1014.6
20260509074742 56 280 2.6 2.6 0.00 0.00 0.00 13 1014.6
20260509074241 56 280 0.0 1.7 0.00 0.00 0.00 13 1014.7
20260509073741 56 280 0.0 2.6 0.00 0.00 0.00 13 1014.5
20260509073241 56 280 0.0 2.6 0.00 0.00 0.00 13 1014.5
20260509072741 56 280 0.0 0.0 0.00 0.00 0.00 13 1014.5
20260509072241 56 280 0.0 0.0 0.00 0.00 0.00 13 1014.6
20260509071741 56 280 0.0 0.0 0.00 0.00 0.00 13 1014.5
20260509071241 56 280 0.0 0.0 0.00 0.00 0.00 13 1014.6
20260509070741 56 280 0.0 0.0 0.00 0.00 0.00 12 1014.7
20260509070241 56 280 0.0 0.0 0.00 0.00 0.00 12 1014.8
20260509065742 56 280 0.0 0.0 0.00 0.00 0.00 12 1014.7
20260509065241 56 280 0.0 0.0 0.00 0.00 0.00 12 1014.7
20260509064741 56 280 0.0 0.0 0.00 0.00 0.00 12 1014.7
20260509064241 56 280 0.0 0.0 0.00 0.00 0.00 12 1014.7
20260509063741 56 280 0.0 0.0 0.00 0.00 0.00 12 1014.7
20260509063241 56 280 0.0 0.0 0.00 0.00 0.00 12 1014.7
20260509062741 56 280 0.0 0.0 0.00 0.00 0.00 12 1014.6
20260509062241 56 280 0.0 0.0 0.00 0.00 0.00 12 1014.6
20260509061241 56 280 0.0 0.0 0.00 0.00 0.00 12 1014.6
20260509060741 56 280 0.0 0.0 0.00 0.00 0.00 12 1014.7
20260509060241 56 280 0.0 0.0 0.00 0.00 0.00 12 1014.7
20260509055741 56 280 0.0 0.0 0.00 0.00 0.00 12 1014.6
20260509055241 56 280 0.0 1.7 0.00 0.00 0.00 12 1014.7
20260509054741 56 280 0.0 1.7 0.00 0.00 0.00 12 1014.8
20260509054241 55 280 0.0 1.7 0.00 0.00 0.00 12 1014.7
20260509053741 55 280 0.9 1.7 0.00 0.00 0.00 12 1014.7
20260509053241 55 280 1.7 1.7 0.00 0.00 0.00 12 1014.8
20260509052741 55 280 0.0 1.7 0.00 0.00 0.00 12 1014.7
20260509052241 55 280 0.9 2.6 0.00 0.00 0.00 12 1014.7
20260509051741 55 280 0.0 2.6 0.00 0.00 0.00 12 1014.7
20260509051241 55 280 0.0 2.6 0.00 0.00 0.00 12 1014.6
20260509050741 55 280 0.0 2.6 0.00 0.00 0.00 12 1014.5
20260509050241 55 280 2.6 2.6 0.00 0.00 0.00 12 1014.6
20260509045741 55 280 0.0 3.5 0.00 0.00 0.00 13 1014.5
20260509045240 55 280 0.0 3.5 0.00 0.00 0.00 13 1014.4
20260509044741 55 280 0.0 3.5 0.00 0.00 0.00 13 1014.4
20260509044241 55 280 2.6 3.5 0.00 0.00 0.00 13 1014.4
20260509043741 55 280 0.0 4.3 0.00 0.00 0.00 13 1014.2
20260509042740 55 280 3.5 4.3 0.00 0.00 0.00 14 1014.2
20260509042240 55 280 0.0 4.3 0.00 0.00 0.00 14 1014.1
20260509041741 55 281 0.9 3.5 0.00 0.00 0.00 14 1014.1
20260509041241 55 281 0.0 2.6 0.00 0.00 0.00 14 1013.9
20260509040241 55 281 0.0 3.5 0.00 0.00 0.00 15 1013.8
20260509035741 55 281 0.0 3.5 0.00 0.00 0.00 15 1013.7
20260509035240 55 280 0.0 2.6 0.00 0.00 0.00 16 1013.8
20260509034740 55 280 0.0 3.5 0.00 0.00 0.00 16 1013.7
20260509034240 56 280 0.0 5.2 0.00 0.00 0.00 17 1013.7
20260509033741 56 281 0.0 5.2 0.00 0.00 0.00 18 1013.6
20260509033241 56 280 0.0 3.5 0.00 0.00 0.00 19 1013.7
20260509032240 56 280 0.0 5.2 0.00 0.00 0.00 21 1013.3
20260509031741 56 281 0.0 5.2 0.00 0.00 0.00 22 1013.4
20260509031240 57 279 0.0 4.3 0.00 0.00 0.00 22 1013.3
20260509030740 57 275 0.9 4.3 0.00 0.00 0.00 24 1013.2
20260509030241 57 265 0.0 3.5 0.00 0.00 0.00 25 1013.2
20260509025740 57 269 0.0 3.5 0.00 0.00 0.00 26 1013.2
20260509025241 58 269 1.7 4.3 0.00 0.00 0.00 27 1013.2
20260509024740 58 315 1.7 4.3 0.00 0.00 0.00 28 1013.0
20260509024241 59 276 0.0 4.3 0.00 0.00 0.00 30 1012.9
20260509023741 59 281 0.0 4.3 0.00 0.00 0.00 31 1012.9
20260509022740 60 286 0.0 6.1 0.00 0.00 0.00 34 1013.0
20260509022241 60 194 3.5 7.8 0.00 0.00 0.00 35 1012.9
20260509021741 61 242 0.0 7.8 0.00 0.00 0.00 36 1012.9
20260509021241 62 283 2.6 6.1 0.00 0.00 0.00 37 1012.9
20260509020741 62 210 5.2 6.1 0.00 0.00 0.00 38 1012.9
20260509020240 62 287 2.6 4.3 0.00 0.00 0.00 39 1012.9
20260509015741 63 277 3.5 4.3 0.00 0.00 0.00 40 1012.8
20260509013741 65 222 3.5 5.2 0.00 0.00 0.00 42 1013.0
20260509013240 66 323 3.5 5.2 0.00 0.00 0.00 42 1012.8
20260509012741 66 183 0.0 5.2 0.00 0.00 0.00 42 1012.7
20260509010741 67 260 0.0 11.3 0.00 0.00 0.00 43 1012.8
20260509010240 68 242 0.0 10.4 0.00 0.00 0.00 43 1012.8
20260509005740 68 272 0.9 8.7 0.00 0.00 0.00 43 1012.9
20260509004741 69 277 1.7 9.6 0.00 0.00 0.00 42 1012.9
20260509004240 70 284 1.7 8.7 0.00 0.00 0.00 42 1012.9
20260509003741 70 271 0.0 7.8 0.00 0.00 0.00 41 1012.9
20260509003240 70 301 1.7 8.7 0.00 0.00 0.00 41 1012.9
20260509002741 70 290 3.5 8.7 0.00 0.00 0.00 41 1013.0